EDDFMUCC

Guest
Details From EDDF - Frankfurt am Main
To MUCC - JARDINES DEL REY
Flight Number -
Tags decoded
Created
Modified
Stats Distance 4,265 nm / 7,899 km
Max Altitude 0 ft / 0 m
Waypoints 2
Social Downloads 0
Likes 0
Share VATSIM

Download

Looking for another format? Having issues loading an existing format? Contact us
Advertisement - Login to hide

Notes

Requested: EDDF ROLIS MUCC

Route

EDDF MUCC

ID Type Via Altitude Latitude Longitude Leg Dist Tot Dist Heading (true) Name
O EDDF APT - 0 ft / 0 m 50.03260˚ 8.54064˚ - 0 nm - Frankfurt am Main
O MUCC APT - 0 ft / 0 m 22.46094˚ -78.32860˚ 4265 nm 4265 nm 283° / 223° JARDINES DEL REY

Altitude Profile

Advertisement - Login to hide

Weather


0- 5 10 15 20 25 30 35+ Temperature / ° C

Clouds and Precipitation
Forecast for 2018-05-22 12:00 UTC. Updated 3 hours ago

Ground ~20,000 ft ~40,000 ft Winds

EDDF

Details ICAO EDDF (FRA)
Name Frankfurt am Main
Region Germany - Civil
Timezone Europe/Berlin (UTC+2.0)
Stats Elevation 355 ft / 108 m (AMSL)
Location 50.032604° 8.540641°
Runways 4
Magnetic Variation 2.399° E

METAR

EDDF 221350Z 10007KT 050V140 9999 SCT040CB BKN280 25/13 Q1011 NOSIG

Decode

TAF

TAF EDDF 221100Z 2212/2318 05005KT CAVOK PROB40 TEMPO 2212/2306 TSRA SCT040CB PROB30 TEMPO 2214/2219 06015G25KT 2000 TSRAGR SCT020 BKN035CB PROB40 TEMPO 2315/2318 4000 TSRA BKN040CB

Decode

Departure Runways

ID Width Length Bearing (true) Bearing (mag) Surface Threshold Offset Overrun Length
07C 197 ft / 60 m 13,091 ft / 3,990 m 69.57° 67.17° Asphalt 0 ft / 0 m 230 ft / 70 m
07L 148 ft / 45 m 9,164 ft / 2,793 m 69.54° 67.14° Concrete 0 ft / 0 m 328 ft / 100 m
07R 148 ft / 45 m 13,094 ft / 3,991 m 69.57° 67.17° Asphalt 0 ft / 0 m 230 ft / 70 m
18 148 ft / 45 m 13,056 ft / 3,980 m 179.84° 177.44° Concrete 0 ft / 0 m 49 ft / 15 m
25C 197 ft / 60 m 13,091 ft / 3,990 m 249.61° 247.21° Asphalt 0 ft / 0 m 1,152 ft / 351 m
25L 148 ft / 45 m 13,094 ft / 3,991 m 249.61° 247.21° Asphalt 0 ft / 0 m 2,051 ft / 625 m
25R 148 ft / 45 m 9,164 ft / 2,793 m 249.57° 247.17° Concrete 0 ft / 0 m 328 ft / 100 m
36 148 ft / 45 m 13,056 ft / 3,980 m 359.84° 357.44° Concrete 0 ft / 0 m 190 ft / 58 m

MUCC

Details ICAO MUCC
Name JARDINES DEL REY
Region Cuba
Timezone America/Havana (UTC-4.0)
Stats Elevation 13 ft / 4 m (AMSL)
Location 22.460945° -78.328602°
Runways 1
Magnetic Variation 7.361° W

METAR

MUCC 221351Z 10010KT 9000 SCT020 BKN100 27/22 Q1017

Decode

TAF

Not found

Destination Runways

ID Width Length Bearing (true) Bearing (mag) Surface Threshold Offset Overrun Length
08 148 ft / 45 m 9,835 ft / 2,998 m 70.91° 78.27° Asphalt 0 ft / 0 m 0 ft / 0 m
26 148 ft / 45 m 9,835 ft / 2,998 m 250.92° 258.28° Asphalt 0 ft / 0 m 0 ft / 0 m

Approach Navaids

Runway Type Ident Frequency Range Bearing (true) Bearing (mag) Slope Elevation
08 Localiser ICJ 109.90 MHz 18 nm / 33 km 70.92° 78.28° - 13 ft / 4 m (AMSL)
08 Glidescope ICJ 109.90 MHz 10 nm / 19 km 70.92° 78.28° 3.00° 98 ft / 30 m (AMSL)

Popular Alternatives